Regional Weather Roundup
Issued by NWS Jackson, KY

Home | Current Version | Previous Version | Graphics & Text | Print | Product List | Glossary On
Versions: 1 2 3 4 5 6 7 8 9 10 11 12 13 14 15 16 17 18 19 20 21 22 23 24 25 26 27 28 29 30 31 32 33 34 35 36 37 38 39 40 41 42 43 44 45 46 47 48 49 50
000
ASUS43 KJKL 190310
RWRJKL

EAST KENTUCKY HOURLY WEATHER ROUNDUP
NATIONAL WEATHER SERVICE JACKSON KY
1100 PM EDT FRI APR 18 2014

NOTE: "FAIR" INDICATES FEW OR NO CLOUDS BELOW 12,000 FEET WITH
NO SIGNIFICANT WEATHER AND/OR OBSTRUCTIONS TO VISIBILITY.

* THESE REPORTS ARE NOT UNDER NWS QUALITY CONTROL AND MAY NOT
  REPORT WEATHER SUCH AS PRECIPITATION AND FOG.

KYZ079-080-083-085-087-088-110-112-115-119-120-190400
...EASTERN KENTUCKY...

CITY           SKY/WX    TMP DP  RH WIND       PRES   REMARKS
JACKSON        CLOUDY    61  34  36 NE7       30.21S
LONDON         CLOUDY    59  42  53 N5        30.20S
SOMERSET*      MOCLDY    59  41  51 NE6       30.22S
MONTICELLO*    CLOUDY    51  47  86 CALM      30.22S
MIDDLESBORO*   CLOUDY    55  42  62 CALM      30.22R
HARLAN APT*    CLOUDY    57  34  41 CALM      30.21S
BLACK MTN*       N/A     48  36  61 E3          N/A
PIKEVILLE APT* CLEAR     63  37  39 CALM      30.21S
BIG SANDY*     CLOUDY    61  37  40 CALM      30.20F
MOREHEAD APT*  CLEAR     59  36  41 MISG      30.24S
$$

KYZ035-036-041-042-044-050-067-078-099-190400
...CENTRAL KENTUCKY...

CITY           SKY/WX    TMP DP  RH WIND       PRES   REMARKS
MT STERLING*   MOCLDY    55  43  62 NE3       30.23F
FLEMING/MASON* CLEAR     59  36  41 N5        30.24S
DANVILLE*      MOCLDY    52  43  71 CALM      30.23S
LEXINGTON      MOCLDY    57  41  55 CALM      30.23R
FRANKFORT      MOCLDY    51  42  71 CALM      30.21S
$$

KYZ091>093-OHZ055-061-077-WVZ005-015-034-035-042-190400
...SOUTHERN OHIO/WEST VIRGINIA...

CITY           SKY/WX    TMP DP  RH WIND       PRES   REMARKS
COVINGTON      MOCLDY    57  39  51 CALM      30.23S
COLUMBUS       PTCLDY    57  38  48 CALM      30.23S
DAYTON         PTCLDY    56  39  53 N5        30.26R
WILMINGTON     PTCLDY    57  38  48 CALM      30.23S
HUNTINGTON     CLOUDY    61  35  37 N5        30.21R
CHARLESTON     CLOUDY    59  40  49 CALM      30.20S
PINEVILLE*     CLOUDY    53  43  70 MISG      30.27S
BECKLEY        CLOUDY    54  30  40 SE8       30.24F
BLUEFIELD      CLOUDY    54  31  41 SE5       30.25S
$$

VAZ002-007-008-TNZ017-027-036-066-071-190400
...SOUTHWEST VIRGINIA/EAST TENNESSEE...

CITY           SKY/WX    TMP DP  RH WIND       PRES   REMARKS
WISE*          CLOUDY    54  32  43 CALM      30.24S
ABINGDON*      CLOUDY    56  32  39 E8        30.23S
BRISTOL        CLOUDY    53  38  56 CALM      30.21F
KNOXVILLE      CLOUDY    56  40  55 N7        30.17S
OAK RIDGE      CLOUDY    56  42  59 E3        30.19F
CROSSVILLE     CLOUDY    54  40  59 CALM      30.20F
NASHVILLE      CLOUDY    61  46  57 NW3       30.19S
$$

...KEY TO REMARKS...
VSB - VISIBILITY IN MILES
WCI - WIND CHILL INDEX
HX  - HEAT INDEX

$$



USA.gov is the U.S. government's official web portal to all federal, state and local government web resources and services.